Regional Weather Roundup
Issued by NWS Little Rock, AR

Home | Current Version | Previous Version | Graphics & Text | Print | Product List | Glossary On
Versions: 1 2 3 4 5 6 7 8 9 10 11 12 13 14 15 16 17 18 19 20 21 22 23 24 25 26 27 28 29 30 31 32 33 34 35 36 37 38 39 40 41 42 43 44 45 46 47 48 49 50
000
ASUS44 KLZK 200105
RWRLZK

WEATHER ROUNDUP FOR ARKANSAS
NATIONAL WEATHER SERVICE LITTLE ROCK AR
800 PM CDT TUE AUG 19 2014

NOTE: "FAIR" INDICATES FEW OR NO CLOUDS BELOW 12,000 FEET WITH NO
SIGNIFICANT WEATHER AND/OR OBSTRUCTIONS TO VISIBILITY.

ARZ001-003-010-029-200200-
NORTHWEST ARKANSAS

CITY           SKY/WX    TMP DP  RH WIND       PRES   REMARKS
FAYETTEVILLE   PTCLDY    84  72  67 S5        29.88R HX  89
FORT SMITH     PTCLDY    85  72  65 S6        29.83R HX  91
HARRISON       PTCLDY    83  73  72 SW5       29.89R HX  89
BENTONVILLE    CLEAR     86  70  58 S5        29.89S HX  90
ROGERS         CLEAR     85  67  54 S6        29.89R HX  87
SILOAM SPGS    CLEAR     84  70  61 S5        29.88R HX  88
HIGHFILL       CLEAR     85  70  60 S3        29.87S HX  89
SPRINGDALE     PTCLDY    88  68  51 W13       29.90R HX  91
$$

ARZ004-005-016-200200-
NORTH CENTRAL ARKANSAS

CITY           SKY/WX    TMP DP  RH WIND       PRES   REMARKS
BATESVILLE     MOCLDY    77  75  94 CALM      29.84R
FLIPPIN          N/A     88  72  58 S5        29.85R HX  94
MTN HOME       CLEAR     86  72  62 SW6       29.84R HX  92
$$

ARZ040-041-200200-
WEST CENTRAL ARKANSAS

CITY           SKY/WX    TMP DP  RH WIND       PRES   REMARKS
MENA           PTCLDY    86  79  79 CALM      29.93R HX  99
MOUNT IDA      PTCLDY    84  76  76 CALM      29.88R HX  93
$$

ARZ009-017-025-026-028-200200-
NORTHEAST ARKANSAS

CITY           SKY/WX    TMP DP  RH WIND       PRES   REMARKS
CORNING        LGT RAIN  84  77  79 SE5       29.83R HX  94
JONESBORO      MOCLDY    86  76  71 S8        29.83R HX  96
NEWPORT        PTCLDY    86  79  79 SW8       29.84R HX  99
WALNUT RIDGE   PTCLDY    84  73  70 S9        29.81R HX  91
BLYTHEVILLE    PTCLDY    83  78  85 SE5       29.85R HX  93
$$

ARZ022-023-033-042-044-200200-
CENTRAL ARKANSAS

CITY           SKY/WX    TMP DP  RH WIND       PRES   REMARKS
LITTLE ROCK    MOCLDY    88  75  65 SW12      29.87R HX  97
N LITTLE ROCK  MOCLDY    87  78  73 SW10G18   29.87R HX  99
JACKSONVILLE   PTCLDY    88  76  67 S7        29.86R HX  99
SEARCY           N/A     87  79  77 CALM        N/A  HX 101
HOT SPRINGS    PTCLDY    86  75  69 SW7       29.90R HX  95
RUSSELLVILLE   MOCLDY    84  70  62 VRB3      29.86R HX  88
CLINTON        FAIR      86  73  66 CALM      29.86R HX  93
$$

ARZ036-200200-
EAST ARKANSAS

CITY           SKY/WX    TMP DP  RH WIND       PRES   REMARKS
WEST MEMPHIS   CLEAR     85  78  80 SW5       29.86R HX  96
$$

ARZ050-053-066-070-073-200200-
SOUTHWEST ARKANSAS

CITY           SKY/WX    TMP DP  RH WIND       PRES   REMARKS
ARKADELPHIA    FAIR      85  80  85 CALM      29.89R HX  99
CAMDEN         PTCLDY    84  77  79 S3        29.89R HX  94
TEXARKANA      PTCLDY    84  77  79 S3        29.90R HX  94
EL DORADO      MOCLDY    83  76  79 S6        29.91S HX  91
DE QUEEN       PTCLDY    83  75  77 SE3       29.87R HX  90
$$

ARZ056-057-069-200200-
SOUTHEAST ARKANSAS

CITY           SKY/WX    TMP DP  RH WIND       PRES   REMARKS
PINE BLUFF     PTCLDY    85  77  77 S6        29.89R HX  95
STUTTGART      PTCLDY    84  77  79 S9        29.87R HX  94
MONTICELLO     MOCLDY    83  68  60 W5        29.89S HX  86

$$




USA.gov is the U.S. government's official web portal to all federal, state and local government web resources and services.